Regional Weather Roundup
Issued by NWS

Home | Current Version | Previous Version | Text Only | Print | Product List | Glossary On
Versions: 1 2 3 4 5 6 7 8 9 10 11 12 13 14 15 16 17 18 19 20 21 22 23 24 25 26 27 28 29 30 31 32 33 34 35 36 37 38 39 40 41 42 43 44 45 46 47 48 49 50
000
ASUS44 KEWX 311311
RWRTX
SOUTH TEXAS REGIONAL WEATHER ROUNDUP
NATIONAL WEATHER SERVICE AUSTIN/SAN ANTONIO TX
800 AM CDT TUE MAY 31 2016

NOTE: "FAIR" INDICATED FEW OR NO CLOUDS BELOW 12,000 FEET WITH NO
SIGNIFICANT WEATHER AND/OR OBSTRUCTIONS TO VISIBILITY.

* - THESE STATIONS ARE NOT NWS OR FAA STATIONS...AND ARE NOT SUBJECT
    TO NWS AND FAA QUALITY CONTROL.

TXZ171-172-183>190-311400-
TEXAS HILL COUNTRY AND EDWARDS PLATEAU

CITY           SKY/WX    TMP DP  RH WIND       PRES   REMARKS
JUNCTION       MOSUNNY   73  69  87 CALM      29.90R
*LLANO         CLOUDY    75  75 100 CALM      29.94R
BURNET         PTSUNNY   74  71  91 S6        29.93S
*HORSESHOE BAY PTSUNNY   75  72  92 SE3       29.91S
*KERRVILLE     DRIZZLE   73  71  95 SE3       29.93R
*FREDERICKSBRG PTSUNNY   73  70  91 S6        29.93R
*ROCKSPRINGS   CLOUDY    72  70  94 S9        29.96R FOG
*BOERNE STAGE  CLOUDY    72  72 100 SE7       29.93R
*CASTROVILLE   CLOUDY    76  74  94 SE7       29.90R FOG
HONDO          CLOUDY    75  74  96 SE10      29.90R
*UVALDE        CLOUDY    74  73  96 SE7       29.87S FOG
DEL RIO        CLOUDY    71  68  90 NW3       29.86R
LAUGHLIN AFB   CLOUDY    72  70  93 NW5       29.87R
CARRIZO SPRGS  CLOUDY    73  72  94 SE9       29.83R
*EAGLE PASS    SUNNY     77  72  83 SE8       29.86R
$$

TXZ173-191>194-202-209-217>225-228-311400-
CENTRAL AND SOUTH CENTRAL TEXAS

CITY           SKY/WX    TMP DP  RH WIND       PRES   REMARKS
GEORGETOWN     CLOUDY    75  70  83 S9        29.90S
AUSTIN/BERGSTM CLOUDY    76  74  93 S7        29.90S
AUSTIN/MABRY   CLOUDY    76  73  91 VRB5      29.91S FOG
*AUSTIN/EXEC   CLOUDY    75  75 100 CALM      29.91S FOG
*LAGO VISTA    CLOUDY    75  73  92 S5        29.93S
SAN MARCOS     CLOUDY    75  73  94 SE7       29.91R FOG
NEW BRAUNFELS  CLOUDY    76  73  91 S8        29.89R
RANDOLPH AFB   PTSUNNY   75  75 100 S7        29.90R
PT SAN ANTONIO CLOUDY    76  74  91 SE10      29.88R
SAN ANTONIO    CLOUDY    76  73  91 SE10      29.90S
STINSON FIELD  CLOUDY    78  73  84 SE9       29.86F
*PLEASANTON    CLOUDY    76  74  92 SE7       29.88R
*LA GRANGE       N/A     75  74  98 SE3       29.91R FOG
*GIDDINGS      CLOUDY    73  72  97 S3        29.96R FOG
*GONZALES      CLOUDY    75  75 100 SE3       29.90S FOG
$$

TXZ163>164-176>182-195>201-210>213-226-227-235-311400-
SOUTHEAST TEXAS

CITY           SKY/WX    TMP DP  RH WIND       PRES   REMARKS
COLLEGE STN    CLOUDY    73  72  96 S8        29.92S FOG
*BRYAN         CLOUDY    73  73 100 S5        29.93R
*CALDWELL      FOG       72  72 100 CALM      29.95S VSB 1
*CROCKETT      CLOUDY    72  72 100 S3        29.95S
*BRENHAM       CLOUDY    74  74  99 CALM      29.93R FOG
HUNTSVILLE     SUNNY     75  72  90 S7        29.92S
CONROE         PTSUNNY   72  70  93 CALM      29.93R FOG
HOUSTON BUSH   MOSUNNY   74  73  97 CALM      29.92R
HOUSTON HOBBY  MOSUNNY   76  73  91 S3        29.92R
*HOUSTON SW AP SUNNY     73  72  97 CALM      29.92S
PEARLAND       SUNNY     77  73  87 CALM      29.93R
HOUSTON HOOKS  SUNNY     75  73  93 CALM      29.92R
ELLINGTON FLD  MOSUNNY   77  72  83 CALM      29.94R
SUGAR LAND     SUNNY     76  72  87 S3        29.91R
*HOUSTON EXEC  SUNNY     75  73  94 S7        29.93R
*CLEVELAND MUN MOSUNNY   72  72 100 CALM      29.93R FOG
*WHARTON       SUNNY     74  73  95 SE3       29.92S
*COLUMBUS      PTSUNNY   73  73  99 CALM      29.92R
*EAGLE LAKE    CLOUDY    75  74  96 S5        29.92R
$$

TXZ214>216-236>238-311400-
THE UPPER TEXAS COAST

CITY           SKY/WX    TMP DP  RH WIND       PRES   REMARKS
*ORANGE        MOSUNNY   76  74  92 CALM      29.94R
PORT ARTHUR    MOSUNNY   78  73  84 CALM      29.92R
GALVESTON      MOSUNNY   79  72  79 S8        29.92R
ANGLETON       MOSUNNY   78  74  87 CALM      29.91R
*BAY CITY      SUNNY     78  74  90 S3        29.92R
PALACIOS       PTSUNNY   80  73  79 S8        29.90R
$$

TXZ229>234-239>247-311400-
TEXAS COASTAL BEND AND RIO GRANDE PLAINS

CITY           SKY/WX    TMP DP  RH WIND       PRES   REMARKS
VICTORIA       MOSUNNY   77  74  90 S7        29.90S
*BEEVILLE      MOSUNNY   70  70 100 S9        29.88S
ROCKPORT       MOSUNNY   81  74  79 S8        29.87F
*PORT ARANSAS  PTSUNNY   81  76  83 S12       29.88F
*PORT LAVACA   MOSUNNY   77  76  97 CALM      29.90S
*INGLESIDE     MOSUNNY   64  60  85 S9        29.87F
CORPUS CHRISTI PTSUNNY   78  76  93 SE8       29.87F
CORPUS NAS     PTSUNNY   82  78  88 SE12      29.87F HX  91
*ROBSTOWN      MOSUNNY   80  77  92 SE8       29.87F
ALICE          CLOUDY    78  76  93 SE16      29.85F
KINGSVILLE NAS PTSUNNY   79  79 100 SE10      29.85F FOG
COTULLA        CLOUDY    77  73  87 SE12      29.84F
*FAITH RANCH     N/A    N/A N/A N/A MISG        N/A
LAREDO         LGT RAIN  78  74  87 SE24      29.80F
$$

TXZ248>255-311400-
DEEP SOUTH TEXAS

CITY           SKY/WX    TMP DP  RH WIND       PRES   REMARKS
BROWNSVILLE    PTSUNNY   80  77  90 SE8       29.88R
PORT ISABEL    PTSUNNY   82  77  84 SE12      29.87R HX  90
*SOUTH PADRE     N/A     81  77  89 SE9       29.88R
HARLINGEN      MOSUNNY   80  77  90 SE8       29.87R
*HEBBRONVILLE  CLOUDY    76  74  94 S9G17     29.88S
MCALLEN        CLOUDY    81  76  84 SE9       29.87S
*WESLACO       MOSUNNY   80  75  85 SE9       29.86S
FALFURRIAS     CLOUDY    78  75  91 E7        29.85F
EDINBURG       PTSUNNY   81  77  89 E6        29.87S
*ZAPATA        PTSUNNY   78  75  91 SE8       29.85S
$$

TXZ213>215-236>238-242>244-246-247-251-254-255-311400-
CMAN STATIONS

STATION/POSITION TIME  TEMP    WIND        PRES    WAVE
                       AIR SEA DIR/SP/G            HT/PER
                 (UTC) (F)     (DEG/KT/KT) (MB)    (FT/S)
SABINE PASS      1200   77 81  190/  2/  3 1014.2
SEA RIM ST PARK  1200   79     190/  4/  5 1013.3
NORTH JETTY/GLS  1200   82 81                N/A
EAGLE POINT      1200   79 75  180/  5/  6 1012.5
MORGANS POINT    1200   75 71  100/  2/  2 1012.5
MISSION/ARANSAS  1200   81                 1013.0
PORT O`CONNOR    1200          160/ 12/ 14   N/A
PORT ARANSAS     1200   81 82  150/ 13/ 14 1012.5
MALAQUITE BEACH  1200   81 83  140/ 12/ 13 1012.1
BAFFIN BAY       1200   80 81  150/  9/ 11 1011.8
PORT ISABEL      1200   81 81  160/  8/ 10 1011.5
$$

GMZ080-GMZ150>470-311400-
OFFSHORE BUOY REPORTS

STATION/POSITION TIME  TEMP    WIND        PRES    WAVE
                       AIR SEA DIR/SP/G            HT/PER
                 (UTC) (F)     (DEG/KT/KT) (MB)    (FT/S)
20 E GALVESTON   1250   80 81  170/  8/ 10 1012.4    2/ 4
90 E PT ARANSAS  1250   80 80  180/  8/ 10 1012.5    2/ 4
35 NE PT MANSFLD 1250   81 81  160/ 12/ 16 1011.7    3/ 6
200 E PT ISABEL  1250                        N/A     2/ 6
$$



USA.gov is the U.S. government's official web portal to all federal, state and local government web resources and services.